SL-12 DEB, 43527

Orbit data source: Space-Track

SL-12 DEB, 43527 is space debris in HEO originally from a launch on Mon, 01 Mar 2010 UTC launched from the Tyuratam Missile And Space Complex (TTMTR). Debris objects in space refer to the collection of defunct objects orbiting the Earth. Examples of debris include non-operational satellites, rocket bodies, and fragments generated from explosions, collisions, or faulty payload assembly.

Loading next visibility...
SL-12 DEB details
Identifier
43527, 2010-007Z
Orbit
HEO
Last TLE update1 day ago
Origin
Flag of CISVVKO VKS (CIS)
ManufacturerRKKE
MissionSpacecraft
Bus & MotorUnknown
MassUnknown
Launch date (UTC)
2010-03-01 (15 years ago)
Launch vehicleUnknown
Launch site
Tyuratam Missile And Space Complex (TTMTR)
Object type
Payload
Rocket body
Debris
Shape & HBRUnknown
Radar Cross SectionMedium (>0.1 m² and <1 m²)

Expand to show TLE details & history

TLE from 1 day ago
0 SL-12 DEB
1 43527U 10007Z   24338.40034155  .00001464  00000-0  67591-2 0  9996
2 43527  64.9018  25.1161 5665550 320.2043   9.6955  4.26019493100051
Epoch: 2024-12-03T09:36Z
Definitive object data (Epoch: 2024-12-03T09:36:29.509Z)
Latitude0.00012°
Longitude168.29646°
Altitude1,239.999 km
Speed8.937 km/s
True Right ascension01h 40m 31s
True Declination0° 00' 00"
Sunlit
Object was in full shadow at TLE epoch
Visualization TLE readout
Latitude49.87071°
Longitude-45.78143°
Altitude17,332.984 km
Speed2.973 km/s
Apparent Right ascension12h 34m 09s
Apparent Declination47° 26' 43"
Sunlit
Object is in daylight
Visualization observer readout
Local Sidereal Time07:55:16
Azimuth56.834° ENE
Elevation40.726°
Doppler factor1
Orbital elements
Apogee altitude18,800.429 km
Perigee altitude588.438 km
Semi-major axis16,072.571 km
Eccentricity0.566555
Inclination64.9018°
RAAN25.1161°
Arg. of periapsis320.2043°
True anomaly40.0333°
Mean anomaly9.6955°
Eccentric anomaly21.69562°
Mean motion1.06516 °/min
BSTAR0.0067591
Orbital period337.98 mins
Loading maneuver chart data...
Loading historical data...
Loading historical data...
Loading historical data...
Loading historical data...
Loading historical data...
Loading historical data...
Loading historical data...

SL-12 DEB Visibility forecast

Observer location: undefined°, undefined

Span
Click to sort rows by Start time (UTC) header in descending order
Start Az.
Max El. time (UTC)
Max El. Az.
Max El.
End time (UTC)
End Az.
140 mins2024-12-04 10:00:53.824Z56.869° ENE2024-12-04 10:00:53.824Z56.869° ENE33.123°2024-12-04 12:20:53.824Z117.418° SE
226 mins2024-12-04 14:28:53.824Z327.169° NNW2024-12-04 16:05:53.824Z284.355° WNW40.802°2024-12-04 18:14:53.824Z219.938° SW
6 mins2024-12-05 01:23:53.824Z55.887° ENE2024-12-05 01:25:53.824Z52.047° ENE10.346°2024-12-05 01:29:53.824Z45.539° ENE
191 mins2024-12-05 06:49:53.824Z256.045° W2024-12-05 07:05:53.824Z332.141° NNW40.469°2024-12-05 10:00:53.824Z82.014° E
|